Year,Month,Day,Hour,Minute,Value (Times are PST for temperature in C)
2014,07,15,00,00,14.30
2014,07,15,00,01,14.30
2014,07,15,00,02,14.30
2014,07,15,00,03,14.30
2014,07,15,00,04,14.30
2014,07,15,00,05,14.30
2014,07,15,00,06,14.30
2014,07,15,00,07,14.30
2014,07,15,00,08,14.30
2014,07,15,00,09,14.30
2014,07,15,00,10,14.30
2014,07,15,00,11,14.30
2014,07,15,00,12,14.20
2014,07,15,00,13,14.20
2014,07,15,00,14,14.20
2014,07,15,00,15,14.20
2014,07,15,00,16,14.20
2014,07,15,00,17,14.20
2014,07,15,00,18,14.20
2014,07,15,00,19,14.30
2014,07,15,00,20,14.30
2014,07,15,00,21,14.20
2014,07,15,00,22,14.20
2014,07,15,00,23,14.20
2014,07,15,00,24,14.20
2014,07,15,00,25,14.10
2014,07,15,00,26,14.10
2014,07,15,00,27,14.00
2014,07,15,00,28,13.90
2014,07,15,00,29,13.90
2014,07,15,00,30,13.80
2014,07,15,00,31,13.80
2014,07,15,00,32,13.80
2014,07,15,00,33,13.80
2014,07,15,00,34,13.70
2014,07,15,00,35,13.70
2014,07,15,00,36,13.70
2014,07,15,00,37,13.70
2014,07,15,00,38,13.70
2014,07,15,00,39,13.70
2014,07,15,00,40,13.60
2014,07,15,00,41,13.50
2014,07,15,00,42,13.50
2014,07,15,00,43,13.50
2014,07,15,00,44,13.40
2014,07,15,00,45,13.40
2014,07,15,00,46,13.30
2014,07,15,00,47,13.30
2014,07,15,00,48,13.30
2014,07,15,00,49,13.30
2014,07,15,00,50,13.30
2014,07,15,00,51,13.20
2014,07,15,00,52,13.20
2014,07,15,00,53,13.20
2014,07,15,00,54,13.20
2014,07,15,00,55,13.20
2014,07,15,00,56,13.10
2014,07,15,00,57,13.10
2014,07,15,00,58,13.10
2014,07,15,00,59,13.10
2014,07,15,01,00,13.10
2014,07,15,01,01,13.00
2014,07,15,01,02,13.00
2014,07,15,01,03,13.00
2014,07,15,01,04,13.00
2014,07,15,01,05,12.90
2014,07,15,01,06,12.90
2014,07,15,01,07,12.90
2014,07,15,01,08,12.90
2014,07,15,01,09,12.90
2014,07,15,01,10,12.80
2014,07,15,01,11,12.80
2014,07,15,01,12,12.80
2014,07,15,01,13,12.80
2014,07,15,01,14,12.80
2014,07,15,01,15,12.80
2014,07,15,01,16,12.80
2014,07,15,01,17,12.80
2014,07,15,01,18,12.80
2014,07,15,01,19,12.80
2014,07,15,01,20,12.80
2014,07,15,01,21,12.80
2014,07,15,01,22,12.80
2014,07,15,01,23,12.80
2014,07,15,01,24,12.80
2014,07,15,01,25,12.80
2014,07,15,01,26,12.80
2014,07,15,01,27,12.80
2014,07,15,01,28,12.80
2014,07,15,01,29,12.80
2014,07,15,01,30,12.80
2014,07,15,01,31,12.80
2014,07,15,01,32,12.80
2014,07,15,01,33,12.80
2014,07,15,01,34,12.80
2014,07,15,01,35,12.80
2014,07,15,01,36,12.80
2014,07,15,01,37,12.80
2014,07,15,01,38,12.80
2014,07,15,01,39,12.80
2014,07,15,01,40,12.80
2014,07,15,01,41,12.80
2014,07,15,01,42,12.80
2014,07,15,01,43,12.80
2014,07,15,01,44,12.80
2014,07,15,01,45,12.80
2014,07,15,01,46,12.80
2014,07,15,01,47,12.80
2014,07,15,01,48,12.80
2014,07,15,01,49,12.90
2014,07,15,01,50,12.90
2014,07,15,01,51,12.90
2014,07,15,01,52,12.90
2014,07,15,01,53,13.00
2014,07,15,01,54,13.00
2014,07,15,01,55,13.00
2014,07,15,01,56,13.00
2014,07,15,01,57,13.00
2014,07,15,01,58,13.10
2014,07,15,01,59,13.10
2014,07,15,02,00,13.20
2014,07,15,02,01,13.20
2014,07,15,02,02,13.30
2014,07,15,02,03,13.40
2014,07,15,02,04,13.40
2014,07,15,02,05,13.50
2014,07,15,02,06,13.60
2014,07,15,02,07,13.60
2014,07,15,02,08,13.70
2014,07,15,02,09,13.70
2014,07,15,02,10,13.70
2014,07,15,02,11,13.70
2014,07,15,02,12,13.70
2014,07,15,02,13,13.70
2014,07,15,02,14,13.70
2014,07,15,02,15,13.70
2014,07,15,02,16,13.70
2014,07,15,02,17,13.60
2014,07,15,02,18,13.60
2014,07,15,02,19,13.60
2014,07,15,02,20,13.50
2014,07,15,02,21,13.50
2014,07,15,02,22,13.50
2014,07,15,02,23,13.40
2014,07,15,02,24,13.40
2014,07,15,02,25,13.40
2014,07,15,02,26,13.30
2014,07,15,02,27,13.30
2014,07,15,02,28,13.30
2014,07,15,02,29,13.30
2014,07,15,02,30,13.30
2014,07,15,02,31,13.30
2014,07,15,02,32,13.30
2014,07,15,02,33,13.20
2014,07,15,02,34,13.20
2014,07,15,02,35,13.20
2014,07,15,02,36,13.20
2014,07,15,02,37,13.20
2014,07,15,02,38,13.10
2014,07,15,02,39,13.10
2014,07,15,02,40,13.10
2014,07,15,02,41,13.10
2014,07,15,02,42,13.10
2014,07,15,02,43,13.10
2014,07,15,02,44,13.10
2014,07,15,02,45,13.10
2014,07,15,02,46,13.00
2014,07,15,02,47,13.00
2014,07,15,02,48,13.00
2014,07,15,02,49,13.00
2014,07,15,02,50,13.00
2014,07,15,02,51,13.00
2014,07,15,02,52,13.00
2014,07,15,02,53,13.00
2014,07,15,02,54,13.00
2014,07,15,02,55,12.90
2014,07,15,02,56,12.90
2014,07,15,02,57,12.90
2014,07,15,02,58,12.90
2014,07,15,02,59,12.80
2014,07,15,03,00,12.80
2014,07,15,03,01,12.80
2014,07,15,03,02,12.80
2014,07,15,03,03,12.80
2014,07,15,03,04,12.80
2014,07,15,03,05,12.80
2014,07,15,03,06,12.80
2014,07,15,03,07,12.80
2014,07,15,03,08,12.80
2014,07,15,03,09,12.80
2014,07,15,03,10,12.80
2014,07,15,03,11,12.80
2014,07,15,03,12,12.80
2014,07,15,03,13,12.80
2014,07,15,03,14,12.80
2014,07,15,03,15,12.80
2014,07,15,03,16,12.80
2014,07,15,03,17,12.80
2014,07,15,03,18,12.80
2014,07,15,03,19,12.80
2014,07,15,03,20,12.80
2014,07,15,03,21,12.80
2014,07,15,03,22,12.70
2014,07,15,03,23,12.70
2014,07,15,03,24,12.70
2014,07,15,03,25,12.70
2014,07,15,03,26,12.60
2014,07,15,03,27,12.60
2014,07,15,03,28,12.60
2014,07,15,03,29,12.60
2014,07,15,03,30,12.60
2014,07,15,03,31,12.60
2014,07,15,03,32,12.50
2014,07,15,03,33,12.50
2014,07,15,03,34,12.50
2014,07,15,03,35,12.50
2014,07,15,03,36,12.50
2014,07,15,03,37,12.50
2014,07,15,03,38,12.50
2014,07,15,03,39,12.50
2014,07,15,03,40,12.50
2014,07,15,03,41,12.50
2014,07,15,03,42,12.50
2014,07,15,03,43,12.40
2014,07,15,03,44,12.40
2014,07,15,03,45,12.40
2014,07,15,03,46,12.40
2014,07,15,03,47,12.30
2014,07,15,03,48,12.30
2014,07,15,03,49,12.30
2014,07,15,03,50,12.30
2014,07,15,03,51,12.30
2014,07,15,03,52,12.30
2014,07,15,03,53,12.30
2014,07,15,03,54,12.30
2014,07,15,03,55,12.30
2014,07,15,03,56,12.30
2014,07,15,03,57,12.30
2014,07,15,03,58,12.30
2014,07,15,03,59,12.30
2014,07,15,04,00,12.30
2014,07,15,04,01,12.30
2014,07,15,04,02,12.30
2014,07,15,04,03,12.30
2014,07,15,04,04,12.30
2014,07,15,04,05,12.30
2014,07,15,04,06,12.30
2014,07,15,04,07,12.30
2014,07,15,04,08,12.30
2014,07,15,04,09,12.30
2014,07,15,04,10,12.30
2014,07,15,04,11,12.30
2014,07,15,04,12,12.30
2014,07,15,04,13,12.30
2014,07,15,04,14,12.30
2014,07,15,04,15,12.30
2014,07,15,04,16,12.30
2014,07,15,04,17,12.30
2014,07,15,04,18,12.30
2014,07,15,04,19,12.30
2014,07,15,04,20,12.30
2014,07,15,04,21,12.30
2014,07,15,04,22,12.20
2014,07,15,04,23,12.20
2014,07,15,04,24,12.20
2014,07,15,04,25,12.20
2014,07,15,04,26,12.20
2014,07,15,04,27,12.20
2014,07,15,04,28,12.20
2014,07,15,04,29,12.10
2014,07,15,04,30,12.10
2014,07,15,04,31,12.10
2014,07,15,04,32,12.10
2014,07,15,04,33,12.10
2014,07,15,04,34,12.10
2014,07,15,04,35,12.10
2014,07,15,04,36,12.10
2014,07,15,04,37,12.10
2014,07,15,04,38,12.10
2014,07,15,04,39,12.10
2014,07,15,04,40,12.10
2014,07,15,04,41,12.10
2014,07,15,04,42,12.10
2014,07,15,04,43,12.10
2014,07,15,04,44,12.10
2014,07,15,04,45,12.00
2014,07,15,04,46,12.00
2014,07,15,04,47,12.00
2014,07,15,04,48,12.00
2014,07,15,04,49,12.00
2014,07,15,04,50,12.00
2014,07,15,04,51,11.90
2014,07,15,04,52,11.90
2014,07,15,04,53,11.90
2014,07,15,04,54,11.90
2014,07,15,04,55,11.90
2014,07,15,04,56,11.90
2014,07,15,04,57,11.90
2014,07,15,04,58,11.90
2014,07,15,04,59,11.90
2014,07,15,05,00,11.90
2014,07,15,05,01,11.90
2014,07,15,05,02,11.90
2014,07,15,05,03,11.90
2014,07,15,05,04,11.90
2014,07,15,05,05,11.90
2014,07,15,05,06,11.90
2014,07,15,05,07,11.90
2014,07,15,05,08,11.90
2014,07,15,05,09,11.90
2014,07,15,05,10,11.90
2014,07,15,05,11,11.90
2014,07,15,05,12,11.90
2014,07,15,05,13,11.90
2014,07,15,05,14,11.90
2014,07,15,05,15,11.90
2014,07,15,05,16,11.90
2014,07,15,05,17,11.90
2014,07,15,05,18,11.90
2014,07,15,05,19,11.90
2014,07,15,05,20,11.90
2014,07,15,05,21,11.80
2014,07,15,05,22,11.80
2014,07,15,05,23,11.80
2014,07,15,05,24,11.80
2014,07,15,05,25,11.80
2014,07,15,05,26,11.80
2014,07,15,05,27,11.80
2014,07,15,05,28,11.80
2014,07,15,05,29,11.80
2014,07,15,05,30,11.80
2014,07,15,05,31,11.80
2014,07,15,05,32,11.80
2014,07,15,05,33,11.80
2014,07,15,05,34,11.80
2014,07,15,05,35,11.80
2014,07,15,05,36,11.80
2014,07,15,05,37,11.80
2014,07,15,05,38,11.80
2014,07,15,05,39,11.80
2014,07,15,05,40,11.80
2014,07,15,05,41,11.90
2014,07,15,05,42,11.90
2014,07,15,05,43,11.90
2014,07,15,05,44,11.90
2014,07,15,05,45,11.90
2014,07,15,05,46,11.90
2014,07,15,05,47,11.80
2014,07,15,05,48,11.80
2014,07,15,05,49,11.80
2014,07,15,05,50,11.80
2014,07,15,05,51,11.80
2014,07,15,05,52,11.80
2014,07,15,05,53,11.80
2014,07,15,05,54,11.80
2014,07,15,05,55,11.80
2014,07,15,05,56,11.80
2014,07,15,05,57,11.80
2014,07,15,05,58,11.90
2014,07,15,05,59,11.90
2014,07,15,06,00,11.90
2014,07,15,06,01,11.90
2014,07,15,06,02,11.90
2014,07,15,06,03,12.00
2014,07,15,06,04,12.00
2014,07,15,06,05,12.00
2014,07,15,06,06,12.00
2014,07,15,06,07,12.00
2014,07,15,06,08,12.10
2014,07,15,06,09,12.10
2014,07,15,06,10,12.10
2014,07,15,06,11,12.20
2014,07,15,06,12,12.20
2014,07,15,06,13,12.20
2014,07,15,06,14,12.20
2014,07,15,06,15,12.30
2014,07,15,06,16,12.30
2014,07,15,06,17,12.30
2014,07,15,06,18,12.30
2014,07,15,06,19,12.30
2014,07,15,06,20,12.40
2014,07,15,06,21,12.40
2014,07,15,06,22,12.40
2014,07,15,06,23,12.50
2014,07,15,06,24,12.50
2014,07,15,06,25,12.50
2014,07,15,06,26,12.50
2014,07,15,06,27,12.60
2014,07,15,06,28,12.60
2014,07,15,06,29,12.60
2014,07,15,06,30,12.60
2014,07,15,06,31,12.70
2014,07,15,06,32,12.70
2014,07,15,06,33,12.70
2014,07,15,06,34,12.70
2014,07,15,06,35,12.70
2014,07,15,06,36,12.80
2014,07,15,06,37,12.80
2014,07,15,06,38,12.80
2014,07,15,06,39,12.80
2014,07,15,06,40,12.90
2014,07,15,06,41,12.90
2014,07,15,06,42,13.00
2014,07,15,06,43,13.00
2014,07,15,06,44,13.10
2014,07,15,06,45,13.10
2014,07,15,06,46,13.10
2014,07,15,06,47,13.10
2014,07,15,06,48,13.10
2014,07,15,06,49,13.10
2014,07,15,06,50,13.10
2014,07,15,06,51,13.10
2014,07,15,06,52,13.10
2014,07,15,06,53,13.10
2014,07,15,06,54,13.10
2014,07,15,06,55,13.00
2014,07,15,06,56,13.00
2014,07,15,06,57,13.00
2014,07,15,06,58,13.00
2014,07,15,06,59,12.90
2014,07,15,07,00,12.90
2014,07,15,07,01,13.00
2014,07,15,07,02,13.00
2014,07,15,07,03,13.00
2014,07,15,07,04,13.00
2014,07,15,07,05,13.00
2014,07,15,07,06,13.00
2014,07,15,07,07,13.00
2014,07,15,07,08,12.90
2014,07,15,07,09,12.80
2014,07,15,07,10,12.80
2014,07,15,07,11,12.80
2014,07,15,07,12,12.80
2014,07,15,07,13,12.80
2014,07,15,07,14,12.80
2014,07,15,07,15,12.80
2014,07,15,07,16,12.80
2014,07,15,07,17,12.80
2014,07,15,07,18,12.80
2014,07,15,07,19,12.80
2014,07,15,07,20,12.90
2014,07,15,07,21,12.90
2014,07,15,07,22,13.00
2014,07,15,07,23,13.00
2014,07,15,07,24,13.00
2014,07,15,07,25,13.10
2014,07,15,07,26,13.10
2014,07,15,07,27,13.10
2014,07,15,07,28,13.20
2014,07,15,07,29,13.30
2014,07,15,07,30,13.30
2014,07,15,07,31,13.40
2014,07,15,07,32,13.50
2014,07,15,07,33,13.60
2014,07,15,07,34,13.70
2014,07,15,07,35,13.70
2014,07,15,07,36,13.80
2014,07,15,07,37,13.90
2014,07,15,07,38,14.00
2014,07,15,07,39,14.20
2014,07,15,07,40,14.30
2014,07,15,07,41,14.40
2014,07,15,07,42,14.50
2014,07,15,07,43,14.60
2014,07,15,07,44,14.70
2014,07,15,07,45,14.70
2014,07,15,07,46,14.80
2014,07,15,07,47,14.80
2014,07,15,07,48,14.80
2014,07,15,07,49,14.80
2014,07,15,07,50,14.80
2014,07,15,07,51,14.80
2014,07,15,07,52,14.80
2014,07,15,07,53,14.80
2014,07,15,07,54,14.80
2014,07,15,07,55,14.80
2014,07,15,07,56,14.70
2014,07,15,07,57,14.60
2014,07,15,07,58,14.60
2014,07,15,07,59,14.50
2014,07,15,08,00,14.40
2014,07,15,08,01,14.40
2014,07,15,08,02,14.30
2014,07,15,08,03,14.20
2014,07,15,08,04,14.20
2014,07,15,08,05,14.10
2014,07,15,08,06,14.00
2014,07,15,08,07,14.00
2014,07,15,08,08,14.00
2014,07,15,08,09,14.00
2014,07,15,08,10,14.00
2014,07,15,08,11,14.00
2014,07,15,08,12,13.90
2014,07,15,08,13,13.90
2014,07,15,08,14,13.90
2014,07,15,08,15,13.90
2014,07,15,08,16,13.90
2014,07,15,08,17,13.90
2014,07,15,08,18,14.00
2014,07,15,08,19,14.00
2014,07,15,08,20,14.00
2014,07,15,08,21,14.10
2014,07,15,08,22,14.10
2014,07,15,08,23,14.20
2014,07,15,08,24,14.20
2014,07,15,08,25,14.20
2014,07,15,08,26,14.20
2014,07,15,08,27,14.30
2014,07,15,08,28,14.30
2014,07,15,08,29,14.30
2014,07,15,08,30,14.30
2014,07,15,08,31,14.30
2014,07,15,08,32,14.30
2014,07,15,08,33,14.30
2014,07,15,08,34,14.30
2014,07,15,08,35,14.20
2014,07,15,08,36,14.20
2014,07,15,08,37,14.20
2014,07,15,08,38,14.20
2014,07,15,08,39,14.20
2014,07,15,08,40,14.10
2014,07,15,08,41,14.00
2014,07,15,08,42,14.00
2014,07,15,08,43,14.00
2014,07,15,08,44,13.90
2014,07,15,08,45,13.90
2014,07,15,08,46,13.90
2014,07,15,08,47,13.90
2014,07,15,08,48,13.90
2014,07,15,08,49,14.00
2014,07,15,08,50,14.10
2014,07,15,08,51,14.20
2014,07,15,08,52,14.20
2014,07,15,08,53,14.30
2014,07,15,08,54,14.40
2014,07,15,08,55,14.40
2014,07,15,08,56,14.40
2014,07,15,08,57,14.40
2014,07,15,08,58,14.50
2014,07,15,08,59,14.50
2014,07,15,09,00,14.60
2014,07,15,09,01,14.70
2014,07,15,09,02,14.80
2014,07,15,09,03,14.80
2014,07,15,09,04,14.90
2014,07,15,09,05,15.00
2014,07,15,09,06,15.00
2014,07,15,09,07,15.10
2014,07,15,09,08,15.10
2014,07,15,09,09,15.20
2014,07,15,09,10,15.30
2014,07,15,09,11,15.30
2014,07,15,09,12,15.30
2014,07,15,09,13,15.30
2014,07,15,09,14,15.40
2014,07,15,09,15,15.40
2014,07,15,09,16,15.50
2014,07,15,09,17,15.50
2014,07,15,09,18,15.50
2014,07,15,09,19,15.60
2014,07,15,09,20,15.60
2014,07,15,09,21,15.60
2014,07,15,09,22,15.60
2014,07,15,09,23,15.60
2014,07,15,09,24,15.70
2014,07,15,09,25,15.80
2014,07,15,09,26,15.80
2014,07,15,09,27,16.00
2014,07,15,09,28,16.10
2014,07,15,09,29,16.10
2014,07,15,09,30,16.20
2014,07,15,09,31,16.20
2014,07,15,09,32,16.30
2014,07,15,09,33,16.30
2014,07,15,09,34,16.40
2014,07,15,09,35,16.40
2014,07,15,09,36,16.50
2014,07,15,09,37,16.60
2014,07,15,09,38,16.60
2014,07,15,09,39,16.70
2014,07,15,09,40,16.70
2014,07,15,09,41,16.80
2014,07,15,09,42,16.80
2014,07,15,09,43,16.90
2014,07,15,09,44,16.90
2014,07,15,09,45,16.90
2014,07,15,09,46,16.90
2014,07,15,09,47,16.90
2014,07,15,09,48,16.90
2014,07,15,09,49,16.80
2014,07,15,09,50,16.80
2014,07,15,09,51,16.80
2014,07,15,09,52,16.80
2014,07,15,09,53,16.80
2014,07,15,09,54,16.90
2014,07,15,09,55,16.90
2014,07,15,09,56,16.90
2014,07,15,09,57,16.90
2014,07,15,09,58,17.00
2014,07,15,09,59,17.00
2014,07,15,10,00,17.00
2014,07,15,10,01,17.00
2014,07,15,10,02,17.10
2014,07,15,10,03,17.10
2014,07,15,10,04,17.20
2014,07,15,10,05,17.20
2014,07,15,10,06,17.20
2014,07,15,10,07,17.20
2014,07,15,10,08,17.20
2014,07,15,10,09,17.30
2014,07,15,10,10,17.30
2014,07,15,10,11,17.30
2014,07,15,10,12,17.30
2014,07,15,10,13,17.30
2014,07,15,10,14,17.30
2014,07,15,10,15,17.40
2014,07,15,10,16,17.40
2014,07,15,10,17,17.50
2014,07,15,10,18,17.60
2014,07,15,10,19,17.70
2014,07,15,10,20,17.70
2014,07,15,10,21,17.80
2014,07,15,10,22,17.90
2014,07,15,10,23,17.90
2014,07,15,10,24,17.90
2014,07,15,10,25,17.90
2014,07,15,10,26,17.80
2014,07,15,10,27,17.80
2014,07,15,10,28,17.70
2014,07,15,10,29,17.60
2014,07,15,10,30,17.60
2014,07,15,10,31,17.60
2014,07,15,10,32,17.60
2014,07,15,10,33,17.60
2014,07,15,10,34,17.70
2014,07,15,10,35,17.70
2014,07,15,10,36,17.70
2014,07,15,10,37,17.70
2014,07,15,10,38,17.60
2014,07,15,10,39,17.60
2014,07,15,10,40,17.60
2014,07,15,10,41,17.60
2014,07,15,10,42,17.60
2014,07,15,10,43,17.60
2014,07,15,10,44,17.60
2014,07,15,10,45,17.70
2014,07,15,10,46,17.70
2014,07,15,10,47,17.80
2014,07,15,10,48,17.90
2014,07,15,10,49,17.90
2014,07,15,10,50,17.80
2014,07,15,10,51,17.80
2014,07,15,10,52,17.80
2014,07,15,10,53,17.80
2014,07,15,10,54,17.80
2014,07,15,10,55,17.80
2014,07,15,10,56,17.90
2014,07,15,10,57,17.90
2014,07,15,10,58,17.90
2014,07,15,10,59,17.90
2014,07,15,11,00,17.90
2014,07,15,11,01,18.00
2014,07,15,11,02,18.10
2014,07,15,11,03,18.10
2014,07,15,11,04,18.20
2014,07,15,11,05,18.20
2014,07,15,11,06,18.30
2014,07,15,11,07,18.40
2014,07,15,11,08,18.40
2014,07,15,11,09,18.40
2014,07,15,11,10,18.40
2014,07,15,11,11,18.40
2014,07,15,11,12,18.40
2014,07,15,11,13,18.50
2014,07,15,11,14,18.50
2014,07,15,11,15,18.60
2014,07,15,11,16,18.70
2014,07,15,11,17,18.70
2014,07,15,11,18,18.90
2014,07,15,11,19,19.00
2014,07,15,11,20,19.10
2014,07,15,11,21,19.10
2014,07,15,11,22,19.10
2014,07,15,11,23,19.10
2014,07,15,11,24,19.20
2014,07,15,11,25,19.30
2014,07,15,11,26,19.40
2014,07,15,11,27,19.50
2014,07,15,11,28,19.60
2014,07,15,11,29,19.70
2014,07,15,11,30,19.80
2014,07,15,11,31,19.80
2014,07,15,11,32,19.90
2014,07,15,11,33,19.90
2014,07,15,11,34,20.00
2014,07,15,11,35,20.10
2014,07,15,11,36,20.10
2014,07,15,11,37,20.20
2014,07,15,11,38,20.20
2014,07,15,11,39,20.30
2014,07,15,11,40,20.30
2014,07,15,11,41,20.30
2014,07,15,11,42,20.30
2014,07,15,11,43,20.20
2014,07,15,11,44,20.20
2014,07,15,11,45,20.20
2014,07,15,11,46,20.20
2014,07,15,11,47,20.10
2014,07,15,11,48,20.00
2014,07,15,11,49,19.90
2014,07,15,11,50,19.90
2014,07,15,11,51,19.90
2014,07,15,11,52,19.90
2014,07,15,11,53,19.90
2014,07,15,11,54,19.90
2014,07,15,11,55,19.90
2014,07,15,11,56,20.00
2014,07,15,11,57,20.10
2014,07,15,11,58,20.20
2014,07,15,11,59,20.30
2014,07,15,12,00,20.40
2014,07,15,12,01,20.50
2014,07,15,12,02,20.60
2014,07,15,12,03,20.70
2014,07,15,12,04,20.70
2014,07,15,12,05,20.80
2014,07,15,12,06,20.90
2014,07,15,12,07,21.00
2014,07,15,12,08,21.00
2014,07,15,12,09,21.10
2014,07,15,12,10,21.20
2014,07,15,12,11,21.20
2014,07,15,12,12,21.20
2014,07,15,12,13,21.30
2014,07,15,12,14,21.30
2014,07,15,12,15,21.30
2014,07,15,12,16,21.30
2014,07,15,12,17,21.30
2014,07,15,12,18,21.30
2014,07,15,12,19,21.40
2014,07,15,12,20,21.50
2014,07,15,12,21,21.60
2014,07,15,12,22,21.60
2014,07,15,12,23,21.70
2014,07,15,12,24,21.70
2014,07,15,12,25,21.80
2014,07,15,12,26,21.80
2014,07,15,12,27,21.70
2014,07,15,12,28,21.70
2014,07,15,12,29,21.70
2014,07,15,12,30,21.70
2014,07,15,12,31,21.70
2014,07,15,12,32,21.80
2014,07,15,12,33,21.90
2014,07,15,12,34,22.00
2014,07,15,12,35,22.00
2014,07,15,12,36,22.10
2014,07,15,12,37,22.20
2014,07,15,12,38,22.20
2014,07,15,12,39,22.20
2014,07,15,12,40,22.20
2014,07,15,12,41,22.20
2014,07,15,12,42,22.20
2014,07,15,12,43,22.20
2014,07,15,12,44,22.20
2014,07,15,12,45,22.20
2014,07,15,12,46,22.20
2014,07,15,12,47,22.20
2014,07,15,12,48,22.30
2014,07,15,12,49,22.20
2014,07,15,12,50,22.10
2014,07,15,12,51,22.10
2014,07,15,12,52,22.00
2014,07,15,12,53,21.80
2014,07,15,12,54,21.70
2014,07,15,12,55,21.70
2014,07,15,12,56,21.60
2014,07,15,12,57,21.60
2014,07,15,12,58,21.60
2014,07,15,12,59,21.60
2014,07,15,13,00,21.60
2014,07,15,13,01,21.60
2014,07,15,13,02,21.50
2014,07,15,13,03,21.40
2014,07,15,13,04,21.40
2014,07,15,13,05,21.30
2014,07,15,13,06,21.40
2014,07,15,13,07,21.40
2014,07,15,13,08,21.50
2014,07,15,13,09,21.60
2014,07,15,13,10,21.60
2014,07,15,13,11,21.60
2014,07,15,13,12,21.70
2014,07,15,13,13,21.80
2014,07,15,13,14,21.90
2014,07,15,13,15,22.00
2014,07,15,13,16,22.00
2014,07,15,13,17,21.90
2014,07,15,13,18,21.90
2014,07,15,13,19,22.00
2014,07,15,13,20,22.10
2014,07,15,13,21,22.10
2014,07,15,13,22,22.20
2014,07,15,13,23,22.30
2014,07,15,13,24,22.50
2014,07,15,13,25,22.60
2014,07,15,13,26,22.70
2014,07,15,13,27,22.80
2014,07,15,13,28,22.90
2014,07,15,13,29,23.00
2014,07,15,13,30,23.10
2014,07,15,13,31,23.20
2014,07,15,13,32,23.10
2014,07,15,13,33,23.00
2014,07,15,13,34,22.90
2014,07,15,13,35,22.90
2014,07,15,13,36,22.90
2014,07,15,13,37,22.90
2014,07,15,13,38,22.90
2014,07,15,13,39,22.90
2014,07,15,13,40,22.80
2014,07,15,13,41,22.80
2014,07,15,13,42,22.70
2014,07,15,13,43,22.70
2014,07,15,13,44,22.70
2014,07,15,13,45,22.60
2014,07,15,13,46,22.60
2014,07,15,13,47,22.60
2014,07,15,13,48,22.70
2014,07,15,13,49,22.80
2014,07,15,13,50,22.90
2014,07,15,13,51,22.90
2014,07,15,13,52,23.00
2014,07,15,13,53,23.00
2014,07,15,13,54,22.90
2014,07,15,13,55,23.00
2014,07,15,13,56,23.10
2014,07,15,13,57,23.20
2014,07,15,13,58,23.20
2014,07,15,13,59,23.30
2014,07,15,14,00,23.30
2014,07,15,14,01,23.30
2014,07,15,14,02,23.30
2014,07,15,14,03,23.30
2014,07,15,14,04,23.50
2014,07,15,14,05,23.60
2014,07,15,14,06,23.70
2014,07,15,14,07,23.70
2014,07,15,14,08,23.80
2014,07,15,14,09,23.80
2014,07,15,14,10,23.80
2014,07,15,14,11,23.80
2014,07,15,14,12,23.70
2014,07,15,14,13,23.70
2014,07,15,14,14,23.70
2014,07,15,14,15,23.70
2014,07,15,14,16,23.70
2014,07,15,14,17,23.70
2014,07,15,14,18,23.80
2014,07,15,14,19,23.70
2014,07,15,14,20,23.80
2014,07,15,14,21,23.80
2014,07,15,14,22,23.80
2014,07,15,14,23,23.80
2014,07,15,14,24,23.70
2014,07,15,14,25,23.70
2014,07,15,14,26,23.60
2014,07,15,14,27,23.50
2014,07,15,14,28,23.40
2014,07,15,14,29,23.40
2014,07,15,14,30,23.40
2014,07,15,14,31,23.40
2014,07,15,14,32,23.50
2014,07,15,14,33,23.60
2014,07,15,14,34,23.70
2014,07,15,14,35,23.70
2014,07,15,14,36,23.70
2014,07,15,14,37,23.70
2014,07,15,14,38,23.70
2014,07,15,14,39,23.70
2014,07,15,14,40,23.70
2014,07,15,14,41,23.70
2014,07,15,14,42,23.70
2014,07,15,14,43,23.70
2014,07,15,14,44,23.70
2014,07,15,14,45,23.70
2014,07,15,14,46,23.80
2014,07,15,14,47,23.70
2014,07,15,14,48,23.70
2014,07,15,14,49,23.70
2014,07,15,14,50,23.70
2014,07,15,14,51,23.70
2014,07,15,14,52,23.70
2014,07,15,14,53,23.70
2014,07,15,14,54,23.80
2014,07,15,14,55,23.90
2014,07,15,14,56,24.00
2014,07,15,14,57,24.10
2014,07,15,14,58,24.10
2014,07,15,14,59,24.10
2014,07,15,15,00,24.20
2014,07,15,15,01,24.20
2014,07,15,15,02,24.30
2014,07,15,15,03,24.30
2014,07,15,15,04,24.30
2014,07,15,15,05,24.20
2014,07,15,15,06,24.20
2014,07,15,15,07,24.10
2014,07,15,15,08,24.10
2014,07,15,15,09,24.10
2014,07,15,15,10,24.20
2014,07,15,15,11,24.30
2014,07,15,15,12,24.30
2014,07,15,15,13,24.40
2014,07,15,15,14,24.40
2014,07,15,15,15,24.50
2014,07,15,15,16,24.50
2014,07,15,15,17,24.50
2014,07,15,15,18,24.60
2014,07,15,15,19,24.60
2014,07,15,15,20,24.60
2014,07,15,15,21,24.60
2014,07,15,15,22,24.60
2014,07,15,15,23,24.70
2014,07,15,15,24,24.70
2014,07,15,15,25,24.80
2014,07,15,15,26,24.80
2014,07,15,15,27,24.80
2014,07,15,15,28,24.80
2014,07,15,15,29,24.80
2014,07,15,15,30,24.80
2014,07,15,15,31,24.80
2014,07,15,15,32,24.80
2014,07,15,15,33,24.80
2014,07,15,15,34,24.80
2014,07,15,15,35,24.80
2014,07,15,15,36,24.80
2014,07,15,15,37,24.80
2014,07,15,15,38,24.80
2014,07,15,15,39,24.80
2014,07,15,15,40,24.80
2014,07,15,15,41,24.90
2014,07,15,15,42,24.90
2014,07,15,15,43,25.00
2014,07,15,15,44,25.00
2014,07,15,15,45,25.00
2014,07,15,15,46,25.00
2014,07,15,15,47,25.00
2014,07,15,15,48,24.90
2014,07,15,15,49,24.90
2014,07,15,15,50,25.00
2014,07,15,15,51,25.00
2014,07,15,15,52,25.10
2014,07,15,15,53,25.20
2014,07,15,15,54,25.20
2014,07,15,15,55,25.30
2014,07,15,15,56,25.30
2014,07,15,15,57,25.30
2014,07,15,15,58,25.30
2014,07,15,15,59,25.30
2014,07,15,16,00,25.30
2014,07,15,16,01,25.40
2014,07,15,16,02,25.40
2014,07,15,16,03,25.40
2014,07,15,16,04,25.40
2014,07,15,16,05,25.40
2014,07,15,16,06,25.40
2014,07,15,16,07,25.40
2014,07,15,16,08,25.50
2014,07,15,16,09,25.50
2014,07,15,16,10,25.50
2014,07,15,16,11,25.60
2014,07,15,16,12,25.70
2014,07,15,16,13,25.80
2014,07,15,16,14,25.80
2014,07,15,16,15,25.90
2014,07,15,16,16,25.90
2014,07,15,16,17,25.90
2014,07,15,16,18,26.00
2014,07,15,16,19,26.00
2014,07,15,16,20,26.10
2014,07,15,16,21,26.10
2014,07,15,16,22,26.10
2014,07,15,16,23,26.10
2014,07,15,16,24,26.10
2014,07,15,16,25,26.10
2014,07,15,16,26,26.10
2014,07,15,16,27,26.00
2014,07,15,16,28,25.90
2014,07,15,16,29,25.90
2014,07,15,16,30,25.90
2014,07,15,16,31,26.00
2014,07,15,16,32,26.00
2014,07,15,16,33,26.10
2014,07,15,16,34,26.20
2014,07,15,16,35,26.30
2014,07,15,16,36,26.40
2014,07,15,16,37,26.40
2014,07,15,16,38,26.60
2014,07,15,16,39,26.60
2014,07,15,16,40,26.70
2014,07,15,16,41,26.80
2014,07,15,16,42,26.80
2014,07,15,16,43,26.90
2014,07,15,16,44,27.00
2014,07,15,16,45,27.10
2014,07,15,16,46,27.10
2014,07,15,16,47,27.20
2014,07,15,16,48,27.10
2014,07,15,16,49,27.00
2014,07,15,16,50,26.80
2014,07,15,16,51,26.70
2014,07,15,16,52,26.60
2014,07,15,16,53,26.60
2014,07,15,16,54,26.60
2014,07,15,16,55,26.60
2014,07,15,16,56,26.60
2014,07,15,16,57,26.60
2014,07,15,16,58,26.60
2014,07,15,16,59,26.60
2014,07,15,17,00,26.60
2014,07,15,17,01,26.60
2014,07,15,17,02,26.60
2014,07,15,17,03,26.60
2014,07,15,17,04,26.60
2014,07,15,17,05,26.60
2014,07,15,17,06,26.60
2014,07,15,17,07,26.60
2014,07,15,17,08,26.60
2014,07,15,17,09,26.60
2014,07,15,17,10,26.60
2014,07,15,17,11,26.60
2014,07,15,17,12,26.60
2014,07,15,17,13,26.60
2014,07,15,17,14,26.70
2014,07,15,17,15,26.70
2014,07,15,17,16,26.80
2014,07,15,17,17,26.80
2014,07,15,17,18,26.90
2014,07,15,17,19,27.00